Regional Weather Roundup
Issued by NWS

Home | Current Version | Previous Version | Text Only | Print | Product List | Glossary Off
Versions: 1 2 3 4 5 6 7 8 9 10 11 12 13 14 15 16 17 18 19 20 21 22 23 24 25 26 27 28 29 30 31 32 33 34 35 36 37 38 39 40 41 42 43 44 45 46 47 48 49 50

751
ASUS43 KLMK 230710
RWRKY
KENTUCKY REGIONAL WEATHER ROUNDUP
NATIONAL WEATHER SERVICE LOUISVILLE KY
300 AM EDT FRI JUN 23 2017

NOTE "FAIR" INDICATES FEW OR NO CLOUDS BELOW 12,000 FEET
WITH NO SIGNIFICANT WEATHER AND/OR OBSTRUCTIONS TO VISIBILITY.

KYZ001>023-026-027-061>063-070>075-230800-
WESTERN AND SOUTH CENTRAL KENTUCKY

CITY           SKY/WX    TMP DP  RH WIND       PRES   REMARKS
PADUCAH        CLOUDY    78  72  81 S8        29.75F
HENDERSON      LGT RAIN  77  73  87 S9G16     29.78F
OWENSBORO      CLOUDY    75  73  93 S9        29.79F
HOPKINSVILLE   CLOUDY    76  73  88 S9        29.81F
BOWLING GREEN  CLOUDY    77  74  90 S9        29.84F
GLASGOW        CLOUDY    75  74  96 S10G17    29.85F
$$

KYZ024-025-028>034-038-045-046-053-230800-
NORTH CENTRAL KENTUCKY

CITY           SKY/WX    TMP DP  RH WIND       PRES   REMARKS
LOUISVILLE/SDF CLOUDY    76  73  91 S10       29.81F
LOUISVILLE/LOU CLOUDY    75  74  96 S8        29.82F
FORT KNOX      CLOUDY    73  73 100 S9        29.81F
$$

KYZ035>037-039>044-047>052-055>060-089>105-230800-
NORTHEAST KENTUCKY

CITY           SKY/WX    TMP DP  RH WIND       PRES   REMARKS
LEXINGTON      CLOUDY    73  70  90 S8        29.87F
COVINGTON      CLOUDY    72  71  97 S13       29.82F
FRANKFORT      CLOUDY    74  70  87 S13       29.83F
$$

KYZ054-064>069-076>088-106>120-230800-
SOUTHEAST KENTUCKY

CITY           SKY/WX    TMP DP  RH WIND       PRES   REMARKS
JACKSON        PTCLDY    70  68  93 CALM      29.92F
LONDON         CLOUDY    72  68  87 S6        29.92F
SOMERSET       CLOUDY    72  72 100 S5        29.91F
MIDDLESBORO    HVY RAIN  73  71  95 S6        29.97F
MONTICELLO     MOSUNNY   75  71  87 S6        29.91F
$$





USA.gov is the U.S. government's official web portal to all federal, state and local government web resources and services.